• Em Portugal
  • Lista de países
  • Para 7 dias
  • Temperatura da água
  • Mapas de satélite
  • Mapa do tempo
  • Widgets de tempo
  • user-avatar
    Iniciar Sessão

    Previsão horária em Cuiaba

    Hoje, 18 Setembro, Terça-feira

    Tempo Temperatura Precipitação Vento Pressão Humidade
    00:00 +25°C° 0 mm 0 m/s 740 mmHg 60%
    01:00 +25°C° 0 mm 0 m/s 740 mmHg 60%
    02:00 +25°C° 0 mm 0 m/s 740 mmHg 60%
    03:00 +25°C° 0.2 mm 0 m/s 739 mmHg 62%
    04:00 +26°C° 0.2 mm 1 m/s 739 mmHg 65%
    05:00 +26°C° 0.2 mm 1 m/s 739 mmHg 67%
    06:00 +27°C° 0.3 mm 1 m/s 740 mmHg 62%
    07:00 +29°C° 0.3 mm 1 m/s 740 mmHg 57%
    08:00 +31°C° 0 mm 1 m/s 741 mmHg 51%
    09:00 +33°C° 0 mm 1 m/s 740 mmHg 45%
    10:00 +36°C° 0 mm 2 m/s 740 mmHg 39%
    11:00 +38°C° 0 mm 2 m/s 740 mmHg 32%
    12:00 +39°C° 0 mm 2 m/s 739 mmHg 30%
    13:00 +40°C° 0 mm 2 m/s 738 mmHg 28%
    14:00 +40°C° 0 mm 2 m/s 738 mmHg 26%
    15:00 +39°C° 0 mm 2 m/s 737 mmHg 28%
    16:00 +38°C° 0 mm 2 m/s 737 mmHg 31%
    17:00 +36°C° 0 mm 1 m/s 737 mmHg 33%
    18:00 +35°C° 0.4 mm 1 m/s 737 mmHg 37%
    19:00 +34°C° 0.4 mm 1 m/s 737 mmHg 40%
    20:00 +33°C° 0.4 mm 1 m/s 737 mmHg 44%
    21:00 +32°C° 0 mm 1 m/s 738 mmHg 46%
    22:00 +32°C° 0 mm 1 m/s 738 mmHg 48%
    23:00 +31°C° 0 mm 2 m/s 738 mmHg 50%

    Amanhã, 19 Setembro, Quarta-feira

    Tempo Temperatura Precipitação Vento Pressão Humidade
    00:00 +31°C° 0 mm 2 m/s 738 mmHg 51%
    01:00 +30°C° 0 mm 2 m/s 737 mmHg 53%
    02:00 +30°C° 0 mm 2 m/s 737 mmHg 55%
    03:00 +29°C° 0 mm 2 m/s 737 mmHg 56%
    04:00 +29°C° 0 mm 2 m/s 737 mmHg 57%
    05:00 +29°C° 0 mm 2 m/s 737 mmHg 59%
    06:00 +31°C° 0 mm 2 m/s 738 mmHg 53%
    07:00 +32°C° 0 mm 2 m/s 739 mmHg 48%
    08:00 +35°C° 0 mm 2 m/s 739 mmHg 42%
    09:00 +37°C° 0 mm 2 m/s 739 mmHg 37%
    10:00 +39°C° 0 mm 3 m/s 739 mmHg 31%
    11:00 +42°C° 0 mm 3 m/s 739 mmHg 26%
    12:00 +42°C° 0 mm 3 m/s 738 mmHg 26%
    13:00 +42°C° 0 mm 3 m/s 737 mmHg 26%
    14:00 +42°C° 0 mm 3 m/s 737 mmHg 26%
    15:00 +40°C° 0 mm 2 m/s 737 mmHg 26%
    16:00 +40°C° 0 mm 2 m/s 737 mmHg 27%
    17:00 +39°C° 0 mm 1 m/s 736 mmHg 28%
    18:00 +37°C° 0.1 mm 1 m/s 737 mmHg 32%
    19:00 +35°C° 0.1 mm 1 m/s 737 mmHg 36%
    20:00 +34°C° 0.1 mm 1 m/s 738 mmHg 40%
    21:00 +33°C° 0.4 mm 1 m/s 738 mmHg 43%
    22:00 +32°C° 0.4 mm 1 m/s 738 mmHg 47%
    23:00 +31°C° 0.4 mm 1 m/s 738 mmHg 50%

    Depois de amanhã, 20 Setembro, Quinta-feira

    Tempo Temperatura Precipitação Vento Pressão Humidade
    00:00 +31°C° 0 mm 1 m/s 738 mmHg 51%
    01:00 +31°C° 0 mm 1 m/s 738 mmHg 52%
    02:00 +30°C° 0 mm 1 m/s 737 mmHg 53%
    03:00 +30°C° 0 mm 1 m/s 737 mmHg 54%
    04:00 +30°C° 0 mm 1 m/s 737 mmHg 54%
    05:00 +29°C° 0 mm 1 m/s 737 mmHg 55%
    06:00 +31°C° 0 mm 1 m/s 738 mmHg 49%
    07:00 +33°C° 0 mm 1 m/s 738 mmHg 44%
    08:00 +35°C° 0 mm 1 m/s 739 mmHg 38%
    09:00 +39°C° 0 mm 1 m/s 739 mmHg 33%
    10:00 +42°C° 0 mm 1 m/s 739 mmHg 27%
    11:00 +44°C° 0 mm 1 m/s 740 mmHg 22%
    12:00 +43°C° 0 mm 2 m/s 739 mmHg 23%
    13:00 +42°C° 0 mm 2 m/s 738 mmHg 25%
    14:00 +41°C° 0 mm 2 m/s 737 mmHg 26%
    15:00 +40°C° 0.1 mm 3 m/s 737 mmHg 29%
    16:00 +39°C° 0.1 mm 3 m/s 737 mmHg 31%
    17:00 +38°C° 0.1 mm 3 m/s 737 mmHg 33%
    18:00 +36°C° 0.6 mm 2 m/s 738 mmHg 39%
    19:00 +35°C° 0.6 mm 2 m/s 739 mmHg 45%
    20:00 +32°C° 0.6 mm 2 m/s 739 mmHg 51%
    21:00 +31°C° 0.2 mm 2 m/s 739 mmHg 54%
    22:00 +30°C° 0.2 mm 1 m/s 739 mmHg 57%
    23:00 +30°C° 0.2 mm 1 m/s 739 mmHg 59%

    21 Setembro, Sexta-feira

    Tempo Temperatura Precipitação Vento Pressão Humidade
    00:00 +30°C° 0 mm 1 m/s 739 mmHg 60%
    01:00 +29°C° 0 mm 1 m/s 738 mmHg 60%
    02:00 +29°C° 0 mm 1 m/s 738 mmHg 60%
    03:00 +29°C° 0.2 mm 1 m/s 738 mmHg 62%
    04:00 +28°C° 0.2 mm 1 m/s 738 mmHg 63%
    05:00 +28°C° 0.2 mm 2 m/s 738 mmHg 64%
    06:00 +30°C° 0.1 mm 2 m/s 739 mmHg 59%
    07:00 +31°C° 0.1 mm 2 m/s 740 mmHg 54%
    08:00 +34°C° 0.1 mm 2 m/s 741 mmHg 50%
    09:00 +36°C° 0 mm 2 m/s 741 mmHg 43%
    10:00 +39°C° 0 mm 1 m/s 741 mmHg 37%
    11:00 +41°C° 0 mm 1 m/s 741 mmHg 30%
    12:00 +42°C° 0 mm 1 m/s 740 mmHg 28%
    13:00 +43°C° 0 mm 1 m/s 739 mmHg 26%
    14:00 +44°C° 0 mm 1 m/s 738 mmHg 24%
    15:00 +42°C° 0 mm 1 m/s 737 mmHg 26%
    16:00 +38°C° 0 mm 0 m/s 737 mmHg 28%
    17:00 +36°C° 0 mm 0 m/s 737 mmHg 30%
    18:00 +35°C° 0 mm 0 m/s 737 mmHg 33%
    19:00 +34°C° 0 mm 0 m/s 738 mmHg 35%
    20:00 +33°C° 0 mm 0 m/s 738 mmHg 37%
    21:00 +34°C° 0.3 mm 1 m/s 738 mmHg 41%
    22:00 +33°C° 0.3 mm 1 m/s 738 mmHg 46%
    23:00 +32°C° 0.3 mm 1 m/s 738 mmHg 50%

    22 Setembro, Sábado

    Tempo Temperatura Precipitação Vento Pressão Humidade
    00:00 +31°C° 0.5 mm 1 m/s 738 mmHg 54%
    01:00 +30°C° 0.5 mm 1 m/s 738 mmHg 58%
    02:00 +30°C° 0.5 mm 1 m/s 737 mmHg 62%
    03:00 +29°C° 0 mm 1 m/s 738 mmHg 63%
    04:00 +29°C° 0 mm 1 m/s 738 mmHg 63%
    05:00 +29°C° 0 mm 1 m/s 738 mmHg 64%
    06:00 +30°C° 0 mm 1 m/s 739 mmHg 58%
    07:00 +32°C° 0 mm 1 m/s 739 mmHg 52%
    08:00 +34°C° 0 mm 1 m/s 740 mmHg 46%
    09:00 +37°C° 0 mm 1 m/s 740 mmHg 39%
    10:00 +41°C° 0 mm 1 m/s 739 mmHg 32%
    11:00 +44°C° 0 mm 1 m/s 739 mmHg 25%
    12:00 +43°C° 0 mm 1 m/s 738 mmHg 25%
    13:00 +43°C° 0 mm 1 m/s 737 mmHg 24%
    14:00 +42°C° 0 mm 1 m/s 736 mmHg 24%
    15:00 +42°C° 0 mm 1 m/s 736 mmHg 25%
    16:00 +41°C° 0 mm 1 m/s 736 mmHg 27%
    17:00 +40°C° 0 mm 1 m/s 736 mmHg 28%
    18:00 +37°C° 0.2 mm 1 m/s 736 mmHg 32%
    19:00 +36°C° 0.2 mm 1 m/s 737 mmHg 36%
    20:00 +35°C° 0.2 mm 2 m/s 737 mmHg 40%
    21:00 +35°C° 0.6 mm 2 m/s 737 mmHg 43%
    22:00 +34°C° 0.6 mm 2 m/s 737 mmHg 47%
    23:00 +32°C° 0.6 mm 2 m/s 737 mmHg 51%

    23 Setembro, Domingo

    Tempo Temperatura Precipitação Vento Pressão Humidade
    00:00 +32°C° 0.3 mm 2 m/s 737 mmHg 53%
    01:00 +31°C° 0.3 mm 2 m/s 737 mmHg 54%
    02:00 +31°C° 0.3 mm 2 m/s 737 mmHg 56%
    03:00 +31°C° 0.1 mm 2 m/s 737 mmHg 56%
    04:00 +31°C° 0.1 mm 2 m/s 737 mmHg 56%
    05:00 +30°C° 0.1 mm 2 m/s 738 mmHg 56%
    06:00 +32°C° 0 mm 2 m/s 738 mmHg 51%
    07:00 +35°C° 0 mm 2 m/s 739 mmHg 46%
    08:00 +36°C° 0 mm 2 m/s 740 mmHg 41%
    09:00 +38°C° 0 mm 2 m/s 740 mmHg 36%
    10:00 +40°C° 0 mm 2 m/s 739 mmHg 30%
    11:00 +42°C° 0 mm 2 m/s 739 mmHg 25%
    12:00 +41°C° 0 mm 2 m/s 739 mmHg 26%
    13:00 +40°C° 0 mm 2 m/s 738 mmHg 28%
    14:00 +40°C° 0 mm 2 m/s 737 mmHg 29%
    15:00 +39°C° 0 mm 2 m/s 737 mmHg 30%
    16:00 +39°C° 0 mm 2 m/s 737 mmHg 30%
    17:00 +39°C° 0 mm 2 m/s 737 mmHg 31%
    18:00 +37°C° 0.1 mm 2 m/s 738 mmHg 35%
    19:00 +35°C° 0.1 mm 1 m/s 738 mmHg 38%
    20:00 +33°C° 0.1 mm 1 m/s 738 mmHg 41%
    21:00 +33°C° 0 mm 1 m/s 738 mmHg 43%
    22:00 +32°C° 0 mm 1 m/s 739 mmHg 44%
    23:00 +31°C° 0 mm 1 m/s 739 mmHg 45%
    Mostrar mais